Time,TemperatureF,DewpointF,PressureIn,WindDirection,WindDirectionDegrees,WindSpeedMPH,WindSpeedGustMPH,Humidity,HourlyPrecipIn,Conditions,Clouds,dailyrainin,SoftwareType,DateUTC
2013-07-05 00:01:00,73.9,72.1,30.24,SSE,158,0.0,0.0,94,0.00,CLR,,0.00,WeatherDisplay:10.37,2013-07-05 04:01:00,
2013-07-05 00:06:00,73.8,72.0,30.24,ESE,112,0.0,0.0,94,0.00,CLR,,0.00,WeatherDisplay:10.37,2013-07-05 04:06:00,
2013-07-05 00:11:00,73.8,72.0,30.24,ESE,112,0.0,0.0,94,0.00,CLR,,0.00,WeatherDisplay:10.37,2013-07-05 04:11:00,
2013-07-05 00:16:00,73.8,72.0,30.24,ESE,112,0.0,0.0,94,0.00,CLR,,0.00,WeatherDisplay:10.37,2013-07-05 04:16:00,
2013-07-05 00:21:00,73.8,72.0,30.24,SE,135,0.0,0.0,94,0.00,CLR,,0.00,WeatherDisplay:10.37,2013-07-05 04:21:00,
2013-07-05 00:26:00,73.8,72.0,30.24,SSE,158,0.0,0.0,94,0.00,CLR,,0.00,WeatherDisplay:10.37,2013-07-05 04:26:00,
2013-07-05 00:31:00,73.6,71.8,30.24,SSE,158,0.0,0.0,94,0.00,CLR,,0.00,WeatherDisplay:10.37,2013-07-05 04:31:00,
2013-07-05 00:36:00,73.4,71.6,30.24,SSE,158,0.0,0.0,94,0.00,CLR,,0.00,WeatherDisplay:10.37,2013-07-05 04:36:00,
2013-07-05 00:41:00,73.4,71.6,30.24,ESE,112,0.0,0.0,94,0.00,CLR,,0.00,WeatherDisplay:10.37,2013-07-05 04:41:00,
2013-07-05 00:46:00,73.4,71.9,30.24,NNE,22,0.0,0.0,95,0.00,CLR,,0.00,WeatherDisplay:10.37,2013-07-05 04:46:00,
2013-07-05 00:51:00,73.2,71.7,30.24,ENE,68,0.0,0.0,95,0.00,CLR,,0.00,WeatherDisplay:10.37,2013-07-05 04:51:00,
2013-07-05 00:56:00,73.2,71.7,30.24,West,270,0.0,0.0,95,0.00,CLR,,0.00,WeatherDisplay:10.37,2013-07-05 04:56:00,
2013-07-05 01:01:00,73.2,71.7,30.24,South,180,0.0,0.0,95,0.00,CLR,,0.00,WeatherDisplay:10.37,2013-07-05 05:01:00,
2013-07-05 01:06:00,73.2,71.7,30.24,NNE,22,0.0,0.0,95,0.00,CLR,,0.00,WeatherDisplay:10.37,2013-07-05 05:06:00,
2013-07-05 01:11:00,73.2,71.7,30.24,North,360,0.0,0.0,95,0.00,CLR,,0.00,WeatherDisplay:10.37,2013-07-05 05:11:00,
2013-07-05 01:16:00,73.2,71.7,30.23,SE,135,0.0,0.0,95,0.00,CLR,,0.00,WeatherDisplay:10.37,2013-07-05 05:16:00,
2013-07-05 01:21:00,73.0,71.5,30.23,ESE,112,0.0,0.0,95,0.00,CLR,,0.00,WeatherDisplay:10.37,2013-07-05 05:21:00,
2013-07-05 01:26:00,73.0,71.5,30.23,SSE,158,0.0,0.0,95,0.00,CLR,,0.00,WeatherDisplay:10.37,2013-07-05 05:26:00,
2013-07-05 01:31:00,73.0,71.8,30.23,SSE,158,0.0,0.0,96,0.00,CLR,,0.00,WeatherDisplay:10.37,2013-07-05 05:31:00,
2013-07-05 01:36:00,73.0,71.8,30.23,SE,135,0.0,0.0,96,0.00,CLR,,0.00,WeatherDisplay:10.37,2013-07-05 05:36:00,
2013-07-05 01:41:00,72.9,71.7,30.23,ENE,68,0.0,0.0,96,0.00,CLR,,0.00,WeatherDisplay:10.37,2013-07-05 05:41:00,
2013-07-05 01:46:00,72.7,71.5,30.23,NW,315,0.0,0.0,96,0.00,CLR,,0.00,WeatherDisplay:10.37,2013-07-05 05:46:00,
2013-07-05 01:51:00,72.7,71.5,30.23,ENE,68,0.0,0.0,96,0.00,CLR,,0.00,WeatherDisplay:10.37,2013-07-05 05:51:00,
2013-07-05 01:56:00,72.7,71.5,30.23,South,180,0.0,0.0,96,0.00,CLR,,0.00,WeatherDisplay:10.37,2013-07-05 05:56:00,
2013-07-05 02:01:00,72.7,71.5,30.23,SW,225,0.0,0.0,96,0.00,CLR,,0.00,WeatherDisplay:10.37,2013-07-05 06:01:00,
2013-07-05 02:06:00,72.7,71.5,30.23,SSE,158,0.0,0.0,96,0.00,CLR,,0.00,WeatherDisplay:10.37,2013-07-05 06:06:00,
2013-07-05 02:11:00,72.7,71.2,30.23,NNW,338,0.0,0.0,95,0.00,CLR,,0.00,WeatherDisplay:10.37,2013-07-05 06:11:00,
2013-07-05 02:16:00,72.7,71.2,30.23,ESE,112,0.0,0.0,95,0.00,CLR,,0.00,WeatherDisplay:10.37,2013-07-05 06:16:00,
2013-07-05 02:21:00,72.7,71.2,30.23,North,360,0.0,0.0,95,0.00,CLR,,0.00,WeatherDisplay:10.37,2013-07-05 06:21:00,
2013-07-05 02:26:00,72.9,71.1,30.23,SSE,158,0.0,0.0,94,0.00,CLR,,0.00,WeatherDisplay:10.37,2013-07-05 06:26:00,
2013-07-05 02:31:00,72.9,71.1,30.23,SE,135,0.0,0.0,94,0.00,CLR,,0.00,WeatherDisplay:10.37,2013-07-05 06:31:00,
2013-07-05 02:36:00,73.0,71.2,30.23,West,270,0.0,0.0,94,0.00,CLR,,0.00,WeatherDisplay:10.37,2013-07-05 06:36:00,
2013-07-05 02:41:00,73.0,71.2,30.23,SSE,158,0.0,0.0,94,0.00,CLR,,0.00,WeatherDisplay:10.37,2013-07-05 06:41:00,
2013-07-05 02:46:00,73.0,71.2,30.23,NE,45,0.0,0.0,94,0.00,CLR,,0.00,WeatherDisplay:10.37,2013-07-05 06:46:00,
2013-07-05 02:51:00,73.0,71.2,30.23,SE,135,0.0,0.0,94,0.00,CLR,,0.00,WeatherDisplay:10.37,2013-07-05 06:51:00,
2013-07-05 02:56:00,73.0,71.2,30.23,NE,45,0.0,0.0,94,0.00,CLR,,0.00,WeatherDisplay:10.37,2013-07-05 06:56:00,
2013-07-05 03:01:00,73.0,71.2,30.23,SSE,158,0.0,0.0,94,0.00,CLR,,0.00,WeatherDisplay:10.37,2013-07-05 07:01:00,
2013-07-05 03:06:00,73.0,71.2,30.23,ESE,112,0.0,0.0,94,0.00,CLR,,0.00,WeatherDisplay:10.37,2013-07-05 07:06:00,
2013-07-05 03:11:00,73.0,71.2,30.23,North,360,0.0,0.0,94,0.00,CLR,,0.00,WeatherDisplay:10.37,2013-07-05 07:11:00,
2013-07-05 03:16:00,73.0,71.2,30.23,West,270,0.0,0.0,94,0.00,CLR,,0.00,WeatherDisplay:10.37,2013-07-05 07:16:00,
2013-07-05 03:21:00,73.0,71.2,30.23,ENE,68,0.0,0.0,94,0.00,CLR,,0.00,WeatherDisplay:10.37,2013-07-05 07:21:00,
2013-07-05 03:26:00,73.0,71.2,30.23,NW,315,1.4,2.3,94,0.00,CLR,,0.00,WeatherDisplay:10.37,2013-07-05 07:26:00,
2013-07-05 03:31:00,73.0,71.2,30.23,NW,315,1.1,2.3,94,0.00,CLR,,0.00,WeatherDisplay:10.37,2013-07-05 07:31:00,
2013-07-05 03:36:00,73.0,71.2,30.23,South,180,0.0,1.2,94,0.00,CLR,,0.00,WeatherDisplay:10.37,2013-07-05 07:36:00,
2013-07-05 03:41:00,73.0,71.2,30.23,NNE,22,0.7,1.7,94,0.00,CLR,,0.00,WeatherDisplay:10.37,2013-07-05 07:41:00,
2013-07-05 03:46:00,73.0,71.2,30.23,North,360,0.0,0.0,94,0.00,CLR,,0.00,WeatherDisplay:10.37,2013-07-05 07:46:00,
2013-07-05 03:51:00,73.0,71.2,30.23,WSW,248,0.0,0.0,94,0.00,CLR,,0.00,WeatherDisplay:10.37,2013-07-05 07:51:00,
2013-07-05 03:56:00,72.9,71.1,30.23,NNE,22,0.0,0.0,94,0.00,CLR,,0.00,WeatherDisplay:10.37,2013-07-05 07:56:00,
2013-07-05 04:01:00,72.9,71.1,30.22,WSW,248,0.0,0.0,94,0.00,CLR,,0.00,WeatherDisplay:10.37,2013-07-05 08:01:00,
2013-07-05 04:06:00,72.9,71.1,30.22,West,270,0.0,0.0,94,0.00,CLR,,0.00,WeatherDisplay:10.37,2013-07-05 08:06:00,
2013-07-05 04:11:00,72.9,71.1,30.22,WSW,248,0.0,0.0,94,0.00,CLR,,0.00,WeatherDisplay:10.37,2013-07-05 08:11:00,
2013-07-05 04:16:00,72.7,70.9,30.23,WNW,292,0.0,0.0,94,0.00,CLR,,0.00,WeatherDisplay:10.37,2013-07-05 08:16:00,
2013-07-05 04:21:00,72.7,71.2,30.23,SSW,202,0.0,0.0,95,0.00,CLR,,0.00,WeatherDisplay:10.37,2013-07-05 08:21:00,
2013-07-05 04:26:00,72.7,71.2,30.23,SW,225,0.0,0.0,95,0.00,CLR,,0.00,WeatherDisplay:10.37,2013-07-05 08:26:00,
2013-07-05 04:31:00,72.5,71.0,30.23,NW,315,0.0,0.0,95,0.00,CLR,,0.00,WeatherDisplay:10.37,2013-07-05 08:31:00,
2013-07-05 04:36:00,72.5,71.0,30.23,NE,45,0.0,0.0,95,0.00,CLR,,0.00,WeatherDisplay:10.37,2013-07-05 08:36:00,
2013-07-05 04:41:00,72.3,71.1,30.23,SW,225,0.0,0.0,96,0.00,CLR,,0.00,WeatherDisplay:10.37,2013-07-05 08:41:00,
2013-07-05 04:46:00,72.3,71.1,30.23,NE,45,0.0,0.0,96,0.00,CLR,,0.00,WeatherDisplay:10.37,2013-07-05 08:46:00,
2013-07-05 04:51:00,72.1,70.9,30.23,SW,225,0.0,0.0,96,0.00,CLR,,0.00,WeatherDisplay:10.37,2013-07-05 08:51:00,
2013-07-05 04:56:00,72.1,70.9,30.23,South,180,0.0,0.0,96,0.00,CLR,,0.00,WeatherDisplay:10.37,2013-07-05 08:56:00,
2013-07-05 05:01:00,72.1,70.9,30.23,SW,225,0.0,0.0,96,0.00,CLR,,0.00,WeatherDisplay:10.37,2013-07-05 09:01:00,
2013-07-05 05:07:00,72.1,70.9,30.23,East,90,0.0,0.0,96,0.00,CLR,,0.00,WeatherDisplay:10.37,2013-07-05 09:07:00,
2013-07-05 05:12:00,72.0,71.1,30.23,South,180,0.0,0.0,97,0.00,CLR,,0.00,WeatherDisplay:10.37,2013-07-05 09:12:00,
2013-07-05 05:18:00,72.0,71.1,30.23,South,180,0.0,0.0,97,0.00,CLR,,0.00,WeatherDisplay:10.37,2013-07-05 09:18:00,
2013-07-05 05:24:00,71.8,70.9,30.23,South,180,0.0,0.0,97,0.00,CLR,,0.00,WeatherDisplay:10.37,2013-07-05 09:24:00,
2013-07-05 05:29:00,71.8,70.9,30.23,SSE,158,0.0,0.0,97,0.00,CLR,,0.00,WeatherDisplay:10.37,2013-07-05 09:29:00,
2013-07-05 05:34:00,71.6,71.0,30.23,ENE,68,0.0,0.0,98,0.00,CLR,,0.00,WeatherDisplay:10.37,2013-07-05 09:34:00,
2013-07-05 05:39:00,71.6,71.0,30.24,SE,135,0.0,0.0,98,0.00,CLR,,0.00,WeatherDisplay:10.37,2013-07-05 09:39:00,
2013-07-05 05:44:00,71.6,71.0,30.24,SSE,158,0.0,0.0,98,0.00,CLR,,0.00,WeatherDisplay:10.37,2013-07-05 09:44:00,
2013-07-05 05:50:00,71.6,71.0,30.24,SSE,158,0.0,0.0,98,0.00,CLR,,0.00,WeatherDisplay:10.37,2013-07-05 09:50:00,
2013-07-05 05:55:00,71.6,71.0,30.24,SE,135,0.0,0.0,98,0.00,CLR,,0.00,WeatherDisplay:10.37,2013-07-05 09:55:00,
2013-07-05 06:00:00,71.6,71.3,30.24,SSE,158,0.0,0.0,99,0.00,CLR,,0.00,WeatherDisplay:10.37,2013-07-05 10:00:00,
2013-07-05 06:05:00,71.6,71.3,30.24,SSW,202,0.0,0.0,99,0.00,CLR,,0.00,WeatherDisplay:10.37,2013-07-05 10:05:00,
2013-07-05 06:11:00,71.6,71.3,30.24,SE,135,0.0,0.0,99,0.00,CLR,,0.00,WeatherDisplay:10.37,2013-07-05 10:11:00,
2013-07-05 06:16:00,71.6,71.3,30.24,South,180,0.0,0.0,99,0.00,CLR,,0.00,WeatherDisplay:10.37,2013-07-05 10:16:00,
2013-07-05 06:21:00,71.6,71.3,30.24,SE,135,0.0,0.0,99,0.00,CLR,,0.00,WeatherDisplay:10.37,2013-07-05 10:21:00,
2013-07-05 06:26:00,71.6,71.3,30.25,SSE,158,0.0,0.0,99,0.00,CLR,,0.00,WeatherDisplay:10.37,2013-07-05 10:26:00,
2013-07-05 06:31:00,71.6,71.3,30.25,SSE,158,0.0,0.0,99,0.00,CLR,,0.00,WeatherDisplay:10.37,2013-07-05 10:31:00,
2013-07-05 06:37:00,71.6,71.3,30.25,SSE,158,0.0,0.0,99,0.00,CLR,,0.00,WeatherDisplay:10.37,2013-07-05 10:37:00,
2013-07-05 06:42:00,71.6,71.3,30.25,West,270,0.0,0.0,99,0.00,CLR,,0.00,WeatherDisplay:10.37,2013-07-05 10:42:00,
2013-07-05 06:47:00,71.8,71.5,30.25,SSE,158,0.0,0.0,99,0.00,CLR,,0.00,WeatherDisplay:10.37,2013-07-05 10:47:00,
2013-07-05 06:52:00,72.0,71.7,30.24,SSE,158,0.0,0.0,99,0.00,CLR,,0.00,WeatherDisplay:10.37,2013-07-05 10:52:00,
2013-07-05 06:57:00,72.0,71.7,30.24,East,90,0.0,0.0,99,0.00,CLR,,0.00,WeatherDisplay:10.37,2013-07-05 10:57:00,
2013-07-05 07:03:00,72.0,71.7,30.24,East,90,0.0,0.0,99,0.00,CLR,,0.00,WeatherDisplay:10.37,2013-07-05 11:03:00,
2013-07-05 07:08:00,72.1,71.8,30.24,East,90,0.0,0.0,99,0.00,CLR,,0.00,WeatherDisplay:10.37,2013-07-05 11:08:00,
2013-07-05 07:14:00,72.3,72.0,30.24,SE,135,0.0,0.0,99,0.00,CLR,,0.00,WeatherDisplay:10.37,2013-07-05 11:14:00,
2013-07-05 07:19:00,72.3,72.0,30.24,East,90,0.0,0.0,99,0.00,CLR,,0.00,WeatherDisplay:10.37,2013-07-05 11:19:00,
2013-07-05 07:24:00,72.5,72.2,30.24,SSW,202,0.0,0.0,99,0.00,CLR,,0.00,WeatherDisplay:10.37,2013-07-05 11:24:00,
2013-07-05 07:29:00,72.7,72.4,30.24,NE,45,0.0,0.0,99,0.00,CLR,,0.00,WeatherDisplay:10.37,2013-07-05 11:29:00,
2013-07-05 07:35:00,72.9,72.6,30.24,East,90,0.1,1.7,99,0.00,CLR,,0.00,WeatherDisplay:10.37,2013-07-05 11:35:00,
2013-07-05 07:40:00,73.0,72.4,30.25,SSE,158,0.0,0.0,98,0.00,CLR,,0.00,WeatherDisplay:10.37,2013-07-05 11:40:00,
2013-07-05 07:46:00,73.4,72.8,30.25,NNE,22,0.0,0.0,98,0.00,CLR,,0.00,WeatherDisplay:10.37,2013-07-05 11:46:00,
2013-07-05 07:51:00,73.6,72.7,30.24,West,270,0.0,0.0,97,0.00,CLR,,0.00,WeatherDisplay:10.37,2013-07-05 11:51:00,
2013-07-05 07:57:00,73.9,73.0,30.24,South,180,0.0,0.0,97,0.00,CLR,,0.00,WeatherDisplay:10.37,2013-07-05 11:57:00,
2013-07-05 08:02:00,74.1,72.9,30.25,SE,135,0.0,1.2,96,0.00,CLR,,0.00,WeatherDisplay:10.37,2013-07-05 12:02:00,
2013-07-05 08:08:00,74.3,73.1,30.25,SE,135,0.9,2.3,96,0.00,CLR,,0.00,WeatherDisplay:10.37,2013-07-05 12:08:00,
2013-07-05 08:13:00,74.7,73.2,30.25,South,180,0.0,2.3,95,0.00,CLR,,0.00,WeatherDisplay:10.37,2013-07-05 12:13:00,
2013-07-05 08:19:00,74.8,73.0,30.25,WSW,248,0.7,2.3,94,0.00,CLR,,0.00,WeatherDisplay:10.37,2013-07-05 12:19:00,
2013-07-05 08:24:00,75.2,73.4,30.25,SSE,158,0.0,0.0,94,0.00,CLR,,0.00,WeatherDisplay:10.37,2013-07-05 12:24:00,
2013-07-05 08:29:00,75.4,73.6,30.25,WNW,292,1.7,2.3,94,0.00,CLR,,0.00,WeatherDisplay:10.37,2013-07-05 12:29:00,
2013-07-05 08:34:00,75.7,73.2,30.25,SW,225,0.2,1.2,92,0.00,CLR,,0.00,WeatherDisplay:10.37,2013-07-05 12:34:00,
2013-07-05 08:39:00,75.9,73.4,30.25,SSW,202,0.0,0.0,92,0.00,CLR,,0.00,WeatherDisplay:10.37,2013-07-05 12:39:00,
2013-07-05 08:44:00,76.1,73.6,30.25,SSE,158,0.0,0.0,92,0.00,CLR,,0.00,WeatherDisplay:10.37,2013-07-05 12:44:00,
2013-07-05 08:50:00,76.5,74.0,30.24,SSE,158,0.9,1.7,92,0.00,CLR,,0.00,WeatherDisplay:10.37,2013-07-05 12:50:00,
2013-07-05 08:55:00,76.5,73.7,30.24,SSE,158,0.0,2.3,91,0.00,CLR,,0.00,WeatherDisplay:10.37,2013-07-05 12:55:00,
2013-07-05 09:00:00,76.8,74.0,30.24,ENE,68,0.6,1.7,91,0.00,CLR,,0.00,WeatherDisplay:10.37,2013-07-05 13:00:00,
2013-07-05 09:05:00,77.2,74.4,30.24,SE,135,0.0,0.0,91,0.00,SCT,,0.00,WeatherDisplay:10.37,2013-07-05 13:05:00,
2013-07-05 09:11:00,77.5,74.3,30.24,East,90,0.0,0.0,90,0.00,SCT,,0.00,WeatherDisplay:10.37,2013-07-05 13:11:00,
2013-07-05 09:16:00,77.7,73.9,30.24,SSW,202,0.6,2.2,88,0.00,SCT,,0.00,WeatherDisplay:10.37,2013-07-05 13:16:00,
2013-07-05 09:21:00,78.1,73.6,30.24,North,360,0.5,2.3,86,0.00,SCT,,0.00,WeatherDisplay:10.37,2013-07-05 13:21:00,
2013-07-05 09:26:00,78.3,73.8,30.24,WSW,248,0.0,0.0,86,0.00,SCT,,0.00,WeatherDisplay:10.37,2013-07-05 13:26:00,
2013-07-05 09:32:00,78.3,73.8,30.24,WSW,248,0.0,0.0,86,0.00,SCT,,0.00,WeatherDisplay:10.37,2013-07-05 13:32:00,
2013-07-05 09:37:00,78.6,74.1,30.23,NNE,22,0.0,0.0,86,0.00,SCT,,0.00,WeatherDisplay:10.37,2013-07-05 13:37:00,
2013-07-05 09:43:00,79.0,74.5,30.23,SE,135,0.0,0.0,86,0.00,SCT,,0.00,WeatherDisplay:10.37,2013-07-05 13:43:00,
2013-07-05 09:48:00,79.2,74.6,30.23,NE,45,2.2,2.3,86,0.00,SCT,,0.00,WeatherDisplay:10.37,2013-07-05 13:48:00,
2013-07-05 09:53:00,79.3,74.0,30.23,East,90,0.7,2.3,84,0.00,SCT,,0.00,WeatherDisplay:10.37,2013-07-05 13:53:00,
2013-07-05 09:58:00,79.5,74.2,30.23,SW,225,1.4,1.4,84,0.00,SCT,,0.00,WeatherDisplay:10.37,2013-07-05 13:58:00,
2013-07-05 10:03:00,79.7,74.4,30.23,SW,225,0.0,0.0,84,0.00,SCT,,0.00,WeatherDisplay:10.37,2013-07-05 14:03:00,
2013-07-05 10:08:00,80.4,74.8,30.23,South,180,0.0,0.0,83,0.00,SCT,,0.00,WeatherDisplay:10.37,2013-07-05 14:08:00,
2013-07-05 10:14:00,80.8,74.8,30.23,SSE,158,0.0,2.3,82,0.00,FEW,,0.00,WeatherDisplay:10.37,2013-07-05 14:14:00,
2013-07-05 10:19:00,81.1,74.3,30.23,NE,45,0.0,0.0,80,0.00,FEW,,0.00,WeatherDisplay:10.37,2013-07-05 14:19:00,
2013-07-05 10:24:00,81.3,74.2,30.23,NE,45,1.3,2.7,79,0.00,FEW,,0.00,WeatherDisplay:10.37,2013-07-05 14:24:00,
2013-07-05 10:29:00,81.5,75.5,30.23,SSE,158,0.0,0.0,82,0.00,FEW,,0.00,WeatherDisplay:10.37,2013-07-05 14:29:00,
2013-07-05 10:35:00,81.7,74.5,30.23,NE,45,0.8,2.3,79,0.00,FEW,,0.00,WeatherDisplay:10.37,2013-07-05 14:35:00,
2013-07-05 10:40:00,82.0,75.2,30.23,WSW,248,0.0,0.0,80,0.00,FEW,,0.00,WeatherDisplay:10.37,2013-07-05 14:40:00,
2013-07-05 10:45:00,82.4,74.8,30.23,NE,45,1.4,2.7,78,0.00,FEW,,0.00,WeatherDisplay:10.37,2013-07-05 14:45:00,
2013-07-05 10:50:00,82.4,74.5,30.23,ESE,112,0.0,0.0,77,0.00,FEW,,0.00,WeatherDisplay:10.37,2013-07-05 14:50:00,
2013-07-05 10:55:00,82.4,75.6,30.23,South,180,1.1,2.3,80,0.00,FEW,,0.00,WeatherDisplay:10.37,2013-07-05 14:55:00,
2013-07-05 11:00:00,83.5,75.1,30.23,SSE,158,0.0,0.0,76,0.00,FEW,,0.00,WeatherDisplay:10.37,2013-07-05 15:00:00,
2013-07-05 11:06:00,83.8,75.4,30.22,ESE,112,0.3,1.1,76,0.00,CLR,,0.00,WeatherDisplay:10.37,2013-07-05 15:06:00,
2013-07-05 11:11:00,84.0,74.8,30.22,East,90,1.7,2.3,74,0.00,CLR,,0.00,WeatherDisplay:10.37,2013-07-05 15:11:00,
2013-07-05 11:16:00,84.2,75.0,30.22,WNW,292,0.0,0.0,74,0.00,CLR,,0.00,WeatherDisplay:10.37,2013-07-05 15:16:00,
2013-07-05 11:21:00,84.4,75.6,30.22,SSE,158,0.0,0.0,75,0.00,CLR,,0.00,WeatherDisplay:10.37,2013-07-05 15:21:00,
2013-07-05 11:26:00,81.9,75.5,30.22,ESE,112,0.0,0.0,81,0.00,CLR,,0.00,WeatherDisplay:10.37,2013-07-05 15:26:00,
2013-07-05 11:31:00,82.8,75.6,30.22,ENE,68,0.0,0.0,79,0.00,CLR,,0.00,WeatherDisplay:10.37,2013-07-05 15:31:00,
2013-07-05 11:36:00,86.0,75.9,30.22,ESE,112,0.0,0.0,72,0.00,CLR,,0.00,WeatherDisplay:10.37,2013-07-05 15:36:00,
2013-07-05 11:41:00,84.2,76.6,30.22,ESE,112,0.0,0.0,78,0.00,CLR,,0.00,WeatherDisplay:10.37,2013-07-05 15:41:00,
2013-07-05 11:46:00,84.6,75.8,30.22,SE,135,0.5,2.3,75,0.00,CLR,,0.00,WeatherDisplay:10.37,2013-07-05 15:46:00,
2013-07-05 11:50:00,85.5,76.3,30.22,WSW,248,0.5,3.2,74,0.00,CLR,,0.00,WeatherDisplay:10.37,2013-07-05 15:50:00,
2013-07-05 11:55:00,83.8,76.2,30.22,NNE,22,0.4,2.7,78,0.00,CLR,,0.00,WeatherDisplay:10.37,2013-07-05 15:55:00,
2013-07-05 12:00:00,85.5,75.4,30.22,SE,135,0.4,1.2,72,0.00,CLR,,0.00,WeatherDisplay:10.37,2013-07-05 16:00:00,
2013-07-05 12:05:00,85.5,75.9,30.21,South,180,0.0,0.0,73,0.00,SCT,,0.00,WeatherDisplay:10.37,2013-07-05 16:05:00,
2013-07-05 12:10:00,84.6,75.0,30.21,NE,45,0.0,0.0,73,0.00,SCT,,0.00,WeatherDisplay:10.37,2013-07-05 16:10:00,
2013-07-05 12:15:00,85.5,75.4,30.21,ESE,112,0.0,0.0,72,0.00,SCT,,0.00,WeatherDisplay:10.37,2013-07-05 16:15:00,
2013-07-05 12:20:00,89.6,76.3,30.21,SW,225,0.3,1.2,65,0.00,SCT,,0.00,WeatherDisplay:10.37,2013-07-05 16:20:00,
2013-07-05 12:25:00,90.5,76.2,30.21,SE,135,0.0,0.0,63,0.00,SCT,,0.00,WeatherDisplay:10.37,2013-07-05 16:25:00,
2013-07-05 12:30:00,88.9,76.1,30.21,ENE,68,0.0,0.0,66,0.00,SCT,,0.00,WeatherDisplay:10.37,2013-07-05 16:30:00,
2013-07-05 12:35:00,90.0,75.7,30.21,West,270,0.0,0.0,63,0.00,SCT,,0.00,WeatherDisplay:10.37,2013-07-05 16:35:00,
2013-07-05 12:40:00,88.9,75.6,30.21,West,270,0.0,0.0,65,0.00,SCT,,0.00,WeatherDisplay:10.37,2013-07-05 16:40:00,
2013-07-05 12:45:00,87.3,75.9,30.21,SSE,158,2.2,2.3,69,0.00,SCT,,0.00,WeatherDisplay:10.37,2013-07-05 16:45:00,
2013-07-05 12:50:00,88.9,75.6,30.21,ESE,112,1.1,2.3,65,0.00,SCT,,0.00,WeatherDisplay:10.37,2013-07-05 16:50:00,
2013-07-05 12:55:00,89.1,75.8,30.21,SSE,158,0.0,0.0,65,0.00,SCT,,0.00,WeatherDisplay:10.37,2013-07-05 16:55:00,
2013-07-05 13:00:00,85.5,75.9,30.21,East,90,0.0,0.0,73,0.00,SCT,,0.00,WeatherDisplay:10.37,2013-07-05 17:00:00,
2013-07-05 13:05:00,86.2,75.7,30.20,ESE,112,0.0,0.0,71,0.00,FEW,,0.00,WeatherDisplay:10.37,2013-07-05 17:05:00,
2013-07-05 13:10:00,88.0,74.8,30.20,NNW,338,0.0,0.0,65,0.00,FEW,,0.00,WeatherDisplay:10.37,2013-07-05 17:10:00,
2013-07-05 13:15:00,88.3,75.5,30.20,SSW,202,0.0,0.0,66,0.00,FEW,,0.00,WeatherDisplay:10.37,2013-07-05 17:15:00,
2013-07-05 13:20:00,88.5,74.8,30.20,SSE,158,0.1,2.2,64,0.00,FEW,,0.00,WeatherDisplay:10.37,2013-07-05 17:20:00,
2013-07-05 13:25:00,88.5,74.3,30.20,SW,225,0.1,2.3,63,0.00,FEW,,0.00,WeatherDisplay:10.37,2013-07-05 17:25:00,
2013-07-05 13:30:00,88.7,75.0,30.20,South,180,0.0,0.0,64,0.00,FEW,,0.00,WeatherDisplay:10.37,2013-07-05 17:30:00,
2013-07-05 13:35:00,88.9,74.2,30.20,ENE,68,0.8,3.5,62,0.00,FEW,,0.00,WeatherDisplay:10.37,2013-07-05 17:35:00,
2013-07-05 13:40:00,88.7,74.0,30.20,WNW,292,0.6,2.3,62,0.00,FEW,,0.00,WeatherDisplay:10.37,2013-07-05 17:40:00,
2013-07-05 13:45:00,88.7,74.5,30.20,NE,45,1.1,1.7,63,0.00,FEW,,0.00,WeatherDisplay:10.37,2013-07-05 17:45:00,
2013-07-05 13:50:00,88.9,75.1,30.19,ESE,112,0.3,3.5,64,0.00,FEW,,0.00,WeatherDisplay:10.37,2013-07-05 17:50:00,
2013-07-05 13:55:00,88.9,74.7,30.19,ESE,112,0.0,2.3,63,0.00,FEW,,0.00,WeatherDisplay:10.37,2013-07-05 17:55:00,
2013-07-05 14:00:00,88.9,74.7,30.19,ENE,68,2.2,2.3,63,0.00,FEW,,0.00,WeatherDisplay:10.37,2013-07-05 18:00:00,
2013-07-05 14:05:00,88.5,74.8,30.19,ESE,112,1.7,3.5,64,0.00,FEW,,0.00,WeatherDisplay:10.37,2013-07-05 18:05:00,
2013-07-05 14:10:00,88.5,74.8,30.19,ESE,112,1.2,1.7,64,0.00,FEW,,0.00,WeatherDisplay:10.37,2013-07-05 18:10:00,
2013-07-05 14:15:00,88.7,75.0,30.19,SW,225,1.1,2.3,64,0.00,FEW,,0.00,WeatherDisplay:10.37,2013-07-05 18:15:00,
2013-07-05 14:20:00,88.7,74.5,30.19,South,180,0.0,0.0,63,0.00,FEW,,0.00,WeatherDisplay:10.37,2013-07-05 18:20:00,
2013-07-05 14:25:00,88.7,74.5,30.19,South,180,0.4,2.7,63,0.00,FEW,,0.00,WeatherDisplay:10.37,2013-07-05 18:25:00,
2013-07-05 14:30:00,88.7,74.5,30.19,East,90,0.0,1.2,63,0.00,FEW,,0.00,WeatherDisplay:10.37,2013-07-05 18:30:00,
2013-07-05 14:35:00,88.7,73.5,30.19,West,270,0.4,2.7,61,0.00,FEW,,0.00,WeatherDisplay:10.37,2013-07-05 18:35:00,
2013-07-05 14:40:00,88.9,74.2,30.19,SW,225,2.8,4.6,62,0.00,FEW,,0.00,WeatherDisplay:10.37,2013-07-05 18:40:00,
2013-07-05 14:45:00,88.9,73.2,30.19,SSW,202,0.0,0.0,60,0.00,FEW,,0.00,WeatherDisplay:10.37,2013-07-05 18:45:00,
2013-07-05 14:50:00,88.9,73.7,30.18,SSE,158,0.0,0.0,61,0.00,FEW,,0.00,WeatherDisplay:10.37,2013-07-05 18:50:00,
2013-07-05 14:55:00,88.7,74.0,30.18,SSE,158,1.9,2.3,62,0.00,FEW,,0.00,WeatherDisplay:10.37,2013-07-05 18:55:00,
2013-07-05 15:00:00,87.4,74.2,30.18,SSE,158,1.7,3.5,65,0.00,FEW,,0.00,WeatherDisplay:10.37,2013-07-05 19:00:00,
2013-07-05 15:05:00,88.0,74.3,30.18,NE,45,0.0,0.0,64,0.00,CLR,,0.00,WeatherDisplay:10.37,2013-07-05 19:05:00,
2013-07-05 15:10:00,88.5,73.8,30.18,SE,135,1.1,3.5,62,0.00,CLR,,0.00,WeatherDisplay:10.37,2013-07-05 19:10:00,
2013-07-05 15:15:00,88.5,73.3,30.18,SSW,202,0.0,0.0,61,0.00,CLR,,0.00,WeatherDisplay:10.37,2013-07-05 19:15:00,
2013-07-05 15:20:00,88.3,72.2,30.18,WNW,292,0.0,0.0,59,0.00,CLR,,0.00,WeatherDisplay:10.37,2013-07-05 19:20:00,
2013-07-05 15:25:00,88.7,73.5,30.17,NNW,338,0.0,0.0,61,0.00,CLR,,0.00,WeatherDisplay:10.37,2013-07-05 19:25:00,
2013-07-05 15:30:00,88.7,74.0,30.17,South,180,0.0,0.0,62,0.00,CLR,,0.00,WeatherDisplay:10.37,2013-07-05 19:30:00,
2013-07-05 15:35:00,88.7,75.0,30.17,SSE,158,0.0,0.0,64,0.00,CLR,,0.00,WeatherDisplay:10.37,2013-07-05 19:35:00,
2013-07-05 15:40:00,88.5,73.8,30.17,NNW,338,0.3,2.3,62,0.00,CLR,,0.00,WeatherDisplay:10.37,2013-07-05 19:40:00,
2013-07-05 15:45:00,88.5,72.8,30.17,NNW,338,2.0,3.5,60,0.00,CLR,,0.00,WeatherDisplay:10.37,2013-07-05 19:45:00,
2013-07-05 15:50:00,86.9,71.8,30.17,ENE,68,0.9,1.2,61,0.00,CLR,,0.00,WeatherDisplay:10.37,2013-07-05 19:50:00,
2013-07-05 15:55:00,87.3,72.7,30.17,NE,45,1.0,4.2,62,0.00,CLR,,0.00,WeatherDisplay:10.37,2013-07-05 19:55:00,
2013-07-05 16:00:00,88.2,73.5,30.17,East,90,1.1,2.3,62,0.00,CLR,,0.00,WeatherDisplay:10.37,2013-07-05 20:00:00,
2013-07-05 16:05:00,88.0,72.4,30.16,NNW,338,0.0,0.0,60,0.00,CLR,,0.00,WeatherDisplay:10.37,2013-07-05 20:05:00,
2013-07-05 16:10:00,88.3,72.7,30.16,SSE,158,3.8,4.6,60,0.00,CLR,,0.00,WeatherDisplay:10.37,2013-07-05 20:10:00,
2013-07-05 16:15:00,88.3,73.1,30.16,SSW,202,2.1,2.3,61,0.00,FEW,,0.00,WeatherDisplay:10.37,2013-07-05 20:15:00,
2013-07-05 16:20:00,88.2,72.1,30.16,NE,45,0.9,1.2,59,0.00,FEW,,0.00,WeatherDisplay:10.37,2013-07-05 20:20:00,
2013-07-05 16:25:00,88.0,72.9,30.16,South,180,0.0,0.0,61,0.00,FEW,,0.00,WeatherDisplay:10.37,2013-07-05 20:25:00,
2013-07-05 16:30:00,88.0,72.4,30.16,North,360,2.1,2.3,60,0.00,FEW,,0.00,WeatherDisplay:10.37,2013-07-05 20:30:00,
2013-07-05 16:35:00,88.0,72.4,30.16,South,180,0.3,1.2,60,0.00,FEW,,0.00,WeatherDisplay:10.37,2013-07-05 20:35:00,
2013-07-05 16:40:00,88.0,72.4,30.15,SSW,202,0.5,3.2,60,0.00,FEW,,0.00,WeatherDisplay:10.37,2013-07-05 20:40:00,
2013-07-05 16:45:00,88.0,72.4,30.15,West,270,1.9,2.7,60,0.00,FEW,,0.00,WeatherDisplay:10.37,2013-07-05 20:45:00,
2013-07-05 16:50:00,88.0,71.9,30.15,SE,135,0.0,0.0,59,0.00,FEW,,0.00,WeatherDisplay:10.37,2013-07-05 20:50:00,
2013-07-05 16:55:00,87.8,72.2,30.15,ESE,112,0.0,0.0,60,0.00,FEW,,0.00,WeatherDisplay:10.37,2013-07-05 20:55:00,
2013-07-05 17:00:00,87.8,72.2,30.15,SE,135,0.0,0.0,60,0.00,FEW,,0.00,WeatherDisplay:10.37,2013-07-05 21:00:00,
2013-07-05 17:05:00,87.8,71.2,30.15,SE,135,2.1,2.3,58,0.00,FEW,,0.00,WeatherDisplay:10.37,2013-07-05 21:05:00,
2013-07-05 17:10:00,87.4,72.3,30.15,ENE,68,0.8,1.2,61,0.00,FEW,,0.00,WeatherDisplay:10.37,2013-07-05 21:10:00,
2013-07-05 17:15:00,86.0,72.9,30.15,NNW,338,0.0,0.0,65,0.00,CLR,,0.00,WeatherDisplay:10.37,2013-07-05 21:15:00,
2013-07-05 17:20:00,86.7,72.6,30.15,North,360,0.0,0.0,63,0.00,CLR,,0.00,WeatherDisplay:10.37,2013-07-05 21:20:00,
2013-07-05 17:25:00,88.9,72.7,30.14,SW,225,0.8,2.3,59,0.00,CLR,,0.00,WeatherDisplay:10.37,2013-07-05 21:25:00,
2013-07-05 17:30:00,88.7,72.5,30.14,WNW,292,0.1,2.3,59,0.00,CLR,,0.00,WeatherDisplay:10.37,2013-07-05 21:30:00,
2013-07-05 17:35:00,90.3,72.5,30.14,ENE,68,0.0,0.0,56,0.00,CLR,,0.00,WeatherDisplay:10.37,2013-07-05 21:35:00,
2013-07-05 17:40:00,91.0,73.1,30.13,West,270,0.0,0.0,56,0.00,CLR,,0.00,WeatherDisplay:10.37,2013-07-05 21:40:00,
2013-07-05 17:45:00,90.3,73.5,30.13,NNE,22,0.0,0.0,58,0.00,CLR,,0.00,WeatherDisplay:10.37,2013-07-05 21:45:00,
2013-07-05 17:50:00,90.1,72.8,30.14,SW,225,0.1,2.3,57,0.00,CLR,,0.00,WeatherDisplay:10.37,2013-07-05 21:50:00,
2013-07-05 17:55:00,89.6,73.4,30.14,East,90,0.4,2.3,59,0.00,CLR,,0.00,WeatherDisplay:10.37,2013-07-05 21:55:00,
2013-07-05 18:00:00,89.1,73.9,30.14,NNE,22,0.0,0.0,61,0.00,CLR,,0.00,WeatherDisplay:10.37,2013-07-05 22:00:00,
2013-07-05 18:05:00,88.5,74.3,30.14,WSW,248,0.0,0.0,63,0.00,FEW,,0.00,WeatherDisplay:10.37,2013-07-05 22:05:00,
2013-07-05 18:10:00,88.0,75.2,30.14,NNW,338,0.0,0.0,66,0.00,FEW,,0.00,WeatherDisplay:10.37,2013-07-05 22:10:00,
2013-07-05 18:11:00,88.0,75.2,30.14,ENE,68,0.0,0.0,66,0.00,FEW,,0.00,WeatherDisplay:10.37,2013-07-05 22:11:00,
2013-07-05 18:16:00,87.4,75.5,30.14,SSW,202,0.0,0.0,68,0.00,FEW,,0.00,WeatherDisplay:10.37,2013-07-05 22:16:00,
2013-07-05 18:21:00,86.9,75.5,30.14,East,90,0.0,0.0,69,0.00,FEW,,0.00,WeatherDisplay:10.37,2013-07-05 22:21:00,
2013-07-05 18:26:00,86.4,75.5,30.14,East,90,0.0,0.0,70,0.00,FEW,,0.00,WeatherDisplay:10.37,2013-07-05 22:26:00,
2013-07-05 18:31:00,86.0,75.9,30.14,ENE,68,0.0,0.0,72,0.00,FEW,,0.00,WeatherDisplay:10.37,2013-07-05 22:31:00,
2013-07-05 18:36:00,85.5,75.4,30.14,NNW,338,2.0,2.3,72,0.00,FEW,,0.00,WeatherDisplay:10.37,2013-07-05 22:36:00,
2013-07-05 18:41:00,85.1,75.5,30.14,North,360,0.0,0.0,73,0.00,FEW,,0.00,WeatherDisplay:10.37,2013-07-05 22:41:00,
2013-07-05 18:42:00,85.1,75.5,30.14,East,90,0.0,0.0,73,0.00,FEW,,0.00,WeatherDisplay:10.37,2013-07-05 22:42:00,
2013-07-05 18:47:00,85.1,75.9,30.14,East,90,0.0,0.0,74,0.00,FEW,,0.00,WeatherDisplay:10.37,2013-07-05 22:47:00,
2013-07-05 18:52:00,84.7,75.5,30.13,East,90,0.0,0.0,74,0.00,FEW,,0.00,WeatherDisplay:10.37,2013-07-05 22:52:00,
2013-07-05 18:57:00,84.6,75.8,30.13,ESE,112,0.0,0.0,75,0.00,FEW,,0.00,WeatherDisplay:10.37,2013-07-05 22:57:00,
2013-07-05 19:02:00,84.2,75.4,30.13,ENE,68,0.0,0.0,75,0.00,CLR,,0.00,WeatherDisplay:10.37,2013-07-05 23:02:00,
2013-07-05 19:07:00,84.0,75.6,30.13,ENE,68,0.0,0.0,76,0.00,CLR,,0.00,WeatherDisplay:10.37,2013-07-05 23:07:00,
2013-07-05 19:12:00,83.8,75.4,30.13,ENE,68,0.0,0.0,76,0.00,CLR,,0.00,WeatherDisplay:10.37,2013-07-05 23:12:00,
2013-07-05 19:17:00,83.7,75.7,30.13,ENE,68,0.0,0.0,77,0.00,CLR,,0.00,WeatherDisplay:10.37,2013-07-05 23:17:00,
2013-07-05 19:22:00,83.3,75.7,30.13,ENE,68,0.0,0.0,78,0.00,CLR,,0.00,WeatherDisplay:10.37,2013-07-05 23:22:00,
2013-07-05 19:27:00,83.1,75.5,30.13,NE,45,0.0,0.0,78,0.00,CLR,,0.00,WeatherDisplay:10.37,2013-07-05 23:27:00,
2013-07-05 19:32:00,82.9,75.3,30.13,ENE,68,0.0,0.0,78,0.00,CLR,,0.00,WeatherDisplay:10.37,2013-07-05 23:32:00,
2013-07-05 19:37:00,82.8,75.2,30.13,ENE,68,0.0,0.0,78,0.00,CLR,,0.00,WeatherDisplay:10.37,2013-07-05 23:37:00,
2013-07-05 19:42:00,82.6,75.0,30.13,ENE,68,0.0,0.0,78,0.00,CLR,,0.00,WeatherDisplay:10.37,2013-07-05 23:42:00,
2013-07-05 19:47:00,82.2,75.0,30.13,ENE,68,0.0,0.0,79,0.00,CLR,,0.00,WeatherDisplay:10.37,2013-07-05 23:47:00,
2013-07-05 19:52:00,82.0,74.8,30.13,SSW,202,0.0,0.0,79,0.00,CLR,,0.00,WeatherDisplay:10.37,2013-07-05 23:52:00,
2013-07-05 19:57:00,81.9,75.1,30.13,NE,45,0.0,0.0,80,0.00,CLR,,0.00,WeatherDisplay:10.37,2013-07-05 23:57:00,
2013-07-05 20:02:00,81.5,74.7,30.13,SSE,158,0.0,0.0,80,0.00,CLR,,0.00,WeatherDisplay:10.37,2013-07-06 00:02:00,
2013-07-05 20:07:00,81.5,74.7,30.13,SE,135,0.0,0.0,80,0.00,CLR,,0.00,WeatherDisplay:10.37,2013-07-06 00:07:00,
2013-07-05 20:12:00,81.1,74.7,30.13,SE,135,0.0,0.0,81,0.00,CLR,,0.00,WeatherDisplay:10.37,2013-07-06 00:12:00,
2013-07-05 20:17:00,81.0,75.0,30.13,NNE,22,0.0,0.0,82,0.00,CLR,,0.00,WeatherDisplay:10.37,2013-07-06 00:17:00,
2013-07-05 20:22:00,80.6,74.6,30.13,ESE,112,0.0,0.0,82,0.00,CLR,,0.00,WeatherDisplay:10.37,2013-07-06 00:22:00,
2013-07-05 20:27:00,80.4,74.8,30.13,NNE,22,0.0,0.0,83,0.00,CLR,,0.00,WeatherDisplay:10.37,2013-07-06 00:27:00,
2013-07-05 20:32:00,80.2,74.6,30.13,SE,135,0.0,0.0,83,0.00,CLR,,0.00,WeatherDisplay:10.37,2013-07-06 00:32:00,
2013-07-05 20:37:00,79.9,74.3,30.13,East,90,0.0,0.0,83,0.00,CLR,,0.00,WeatherDisplay:10.37,2013-07-06 00:37:00,
2013-07-05 20:42:00,79.7,74.4,30.13,SSE,158,0.0,0.0,84,0.00,CLR,,0.00,WeatherDisplay:10.37,2013-07-06 00:42:00,
2013-07-05 20:47:00,79.5,74.2,30.13,SSE,158,0.0,0.0,84,0.00,CLR,,0.00,WeatherDisplay:10.37,2013-07-06 00:47:00,
2013-07-05 20:52:00,79.3,74.0,30.13,WSW,248,0.0,0.0,84,0.00,CLR,,0.00,WeatherDisplay:10.37,2013-07-06 00:52:00,
2013-07-05 20:53:00,79.3,74.0,30.13,WSW,248,0.0,0.0,84,0.00,CLR,,0.00,WeatherDisplay:10.37,2013-07-06 00:53:00,
2013-07-05 20:58:00,79.0,74.1,30.13,ESE,112,0.0,0.0,85,0.00,CLR,,0.00,WeatherDisplay:10.37,2013-07-06 00:58:00,
2013-07-05 21:03:00,78.8,74.3,30.14,SE,135,0.0,0.0,86,0.00,CLR,,0.00,WeatherDisplay:10.37,2013-07-06 01:03:00,
2013-07-05 21:08:00,78.6,74.4,30.14,SSE,158,0.0,0.0,87,0.00,CLR,,0.00,WeatherDisplay:10.37,2013-07-06 01:08:00,
2013-07-05 21:13:00,78.3,74.1,30.14,SE,135,0.0,0.0,87,0.00,CLR,,0.00,WeatherDisplay:10.37,2013-07-06 01:13:00,
2013-07-05 21:18:00,78.1,73.6,30.14,SSE,158,0.0,0.0,86,0.00,CLR,,0.00,WeatherDisplay:10.37,2013-07-06 01:18:00,
2013-07-05 21:23:00,78.1,73.9,30.14,SE,135,0.0,0.0,87,0.00,CLR,,0.00,WeatherDisplay:10.37,2013-07-06 01:23:00,
2013-07-05 21:28:00,77.9,73.7,30.15,NE,45,0.0,0.0,87,0.00,CLR,,0.00,WeatherDisplay:10.37,2013-07-06 01:28:00,
2013-07-05 21:33:00,77.7,73.9,30.15,ENE,68,0.0,0.0,88,0.00,CLR,,0.00,WeatherDisplay:10.37,2013-07-06 01:33:00,
2013-07-05 21:38:00,77.5,73.7,30.15,SW,225,0.0,0.0,88,0.00,CLR,,0.00,WeatherDisplay:10.37,2013-07-06 01:38:00,
2013-07-05 21:43:00,77.4,73.6,30.15,SW,225,0.0,0.0,88,0.00,CLR,,0.00,WeatherDisplay:10.37,2013-07-06 01:43:00,
2013-07-05 21:48:00,77.2,73.4,30.15,SSE,158,0.0,0.0,88,0.00,CLR,,0.00,WeatherDisplay:10.37,2013-07-06 01:48:00,
2013-07-05 21:53:00,77.2,73.4,30.16,SE,135,0.0,0.0,88,0.00,CLR,,0.00,WeatherDisplay:10.37,2013-07-06 01:53:00,
2013-07-05 21:58:00,77.2,73.4,30.16,SE,135,0.0,0.0,88,0.00,CLR,,0.00,WeatherDisplay:10.37,2013-07-06 01:58:00,
2013-07-05 22:03:00,77.0,73.2,30.16,ESE,112,0.0,0.0,88,0.00,CLR,,0.00,WeatherDisplay:10.37,2013-07-06 02:03:00,
2013-07-05 22:08:00,76.8,73.0,30.16,ESE,112,0.0,0.0,88,0.00,CLR,,0.00,WeatherDisplay:10.37,2013-07-06 02:08:00,
2013-07-05 22:13:00,76.8,72.6,30.17,ESE,112,0.0,0.0,87,0.00,CLR,,0.00,WeatherDisplay:10.37,2013-07-06 02:13:00,
2013-07-05 22:18:00,76.6,72.4,30.17,NNE,22,0.0,0.0,87,0.00,CLR,,0.00,WeatherDisplay:10.37,2013-07-06 02:18:00,
2013-07-05 22:23:00,76.6,72.4,30.17,ENE,68,0.0,0.0,87,0.00,CLR,,0.00,WeatherDisplay:10.37,2013-07-06 02:23:00,
2013-07-05 22:28:00,76.6,72.4,30.16,West,270,0.0,0.0,87,0.00,CLR,,0.00,WeatherDisplay:10.37,2013-07-06 02:28:00,
2013-07-05 22:33:00,76.6,72.4,30.16,NW,315,0.0,0.0,87,0.00,CLR,,0.00,WeatherDisplay:10.37,2013-07-06 02:33:00,
2013-07-05 22:38:00,76.6,72.1,30.17,SW,225,0.0,0.0,86,0.00,CLR,,0.00,WeatherDisplay:10.37,2013-07-06 02:38:00,
2013-07-05 22:43:00,76.6,72.1,30.17,WNW,292,0.0,0.0,86,0.00,CLR,,0.00,WeatherDisplay:10.37,2013-07-06 02:43:00,
2013-07-05 22:48:00,76.6,71.7,30.17,SE,135,0.0,0.0,85,0.00,CLR,,0.00,WeatherDisplay:10.37,2013-07-06 02:48:00,
2013-07-05 22:53:00,76.6,71.7,30.16,South,180,0.0,0.0,85,0.00,CLR,,0.00,WeatherDisplay:10.37,2013-07-06 02:53:00,
2013-07-05 22:58:00,76.6,71.7,30.16,NNE,22,0.0,0.0,85,0.00,CLR,,0.00,WeatherDisplay:10.37,2013-07-06 02:58:00,
2013-07-05 23:03:00,76.6,71.7,30.17,West,270,0.0,0.0,85,0.00,CLR,,0.00,WeatherDisplay:10.37,2013-07-06 03:03:00,
2013-07-05 23:08:00,76.6,71.7,30.17,WSW,248,0.0,0.0,85,0.00,CLR,,0.00,WeatherDisplay:10.37,2013-07-06 03:08:00,
2013-07-05 23:13:00,76.6,71.7,30.17,WNW,292,0.0,0.0,85,0.00,CLR,,0.00,WeatherDisplay:10.37,2013-07-06 03:13:00,
2013-07-05 23:18:00,76.6,71.7,30.17,SSE,158,0.0,0.0,85,0.00,CLR,,0.00,WeatherDisplay:10.37,2013-07-06 03:18:00,
2013-07-05 23:23:00,76.6,71.7,30.17,South,180,0.0,0.0,85,0.00,CLR,,0.00,WeatherDisplay:10.37,2013-07-06 03:23:00,
2013-07-05 23:28:00,76.6,71.7,30.17,SSE,158,0.0,0.0,85,0.00,CLR,,0.00,WeatherDisplay:10.37,2013-07-06 03:28:00,
2013-07-05 23:33:00,76.6,71.7,30.17,South,180,0.0,0.0,85,0.00,CLR,,0.00,WeatherDisplay:10.37,2013-07-06 03:33:00,
2013-07-05 23:38:00,76.6,71.7,30.17,SE,135,0.0,0.0,85,0.00,CLR,,0.00,WeatherDisplay:10.37,2013-07-06 03:38:00,
2013-07-05 23:43:00,76.6,71.7,30.17,ENE,68,0.0,0.0,85,0.00,CLR,,0.00,WeatherDisplay:10.37,2013-07-06 03:43:00,
2013-07-05 23:48:00,76.6,71.7,30.17,NW,315,0.0,0.0,85,0.00,CLR,,0.00,WeatherDisplay:10.37,2013-07-06 03:48:00,
2013-07-05 23:53:00,76.6,71.7,30.17,SSE,158,0.0,0.0,85,0.00,CLR,,0.00,WeatherDisplay:10.37,2013-07-06 03:53:00,
2013-07-05 23:58:00,76.5,71.7,30.17,SE,135,0.0,0.0,85,0.00,CLR,,0.00,WeatherDisplay:10.37,2013-07-06 03:58:00,